Weather Service Report


416 
ASUS46 KLOX 300713
RWRCA 

SOUTHERN CALIFORNIA WEATHER ROUNDUP
NATIONAL WEATHER SERVICE OXNARD CALIFORNIA
1200 AM PDT SAT MAY 30 2015

NOTE: "FAIR" INDICATES FEW OR NO CLOUDS BELOW 12,000 FEET WITH NO 
SIGNIFICANT WEATHER AND/OR OBSTRUCTIONS TO VISIBILITY.

  -  STATIONS PRECEEDED BY AN ASTERISK (*) ARE NOT NWS OR FAA 
     STATIONS AND ARE NOT SUBJECT TO NWS AND FAA QUALITY CONTROL.

CAZ041-042-087-300800-
LA AND ORANGE COUNTY COASTAL AREAS

  
CITY           SKY/WX    TMP DP  RH WIND       PRES   REMARKS
L.A. DOWNTOWN  CLEAR     60  56  86 CALM      29.93R                  
L.A. AIRPORT   FOG       57  57 100 W6        29.95R VSB 1/4          
LONG BEACH     CLEAR     62  57  83 W5        29.93S                  

CITY           SKY/WX    TMP DP  RH WIND       PRES   REMARKS
AVALON           N/A     57 N/A N/A MISG        N/A                   
FULLERTON      CLEAR     63  57  81 S5        29.92S                  
*GETTY CENTER    N/A     59  54  82 E1          N/A                   
HAWTHORNE      CLOUDY    60  57  89 SW5       29.94R FOG              
*LOS ALAMITOS  FAIR      62  59  91 CALM      29.93R                  
*REDONDO BEACH   N/A     59  55  89 CALM      29.94R                  
SANTA ANA      PTCLDY    61  57  87 SW5       29.93S                  
STA MONICA APT CLOUDY    58  57  97 SW5       29.95R FOG              
*STA MON PIER    N/A     58  56  94 S5        29.94R                  
*UCLA            N/A     59  54  82 CALM      29.91S                  

$$

CAZ547-548-048-300800-
LA COUNTY VALLEYS AND INLAND EMPIRE

  
CITY           SKY/WX    TMP DP  RH WIND       PRES   REMARKS
BURBANK        CLEAR     65  56  72 SE3       29.92S                  
VAN NUYS       CLEAR     66  55  67 CALM      29.92R                  

CITY           SKY/WX    TMP DP  RH WIND       PRES   REMARKS
CORONA AIRPORT SUNNY     61  57  86 CALM      29.93S                  
*CHATSWORTH      N/A     66  55  66 CALM      29.91R                  
CHINO          CLEAR     63  56  78 CALM      29.94S                  
MARCH AFB      CLEAR     63  52  66 NW1       29.94S                  
*NORTHRIDGE      N/A     64  54  68 CALM        N/A                   
ONTARIO        PTCLDY    64  56  75 S5        29.93S                  
*PASADENA        N/A     64  59  82 CALM        N/A                   
RIVERSIDE      CLEAR     67  57  70 CALM      29.93S                  
SAN BERNARDINO NOT AVBL                                               
*WHITEMAN AP   NOT AVBL                                               
*WOODLAND HILL   N/A     63  54  72 S1          N/A                   

$$

CAZ054-055-300800-
LA AND SAN BERNARDINO COUNTY MOUNTAINS

  
CITY           SKY/WX    TMP DP  RH WIND       PRES   REMARKS
*BIG BEAR AIRP MOSUNNY   46  30  53 CALM      30.25S                  
SANDBERG       CLEAR     72  25  17 NW14      30.10S                  

$$

CAZ028-029-059-060-099-300800-
ANTELOPE VALLEY AND SURROUNDING AREAS

  
CITY           SKY/WX    TMP DP  RH WIND       PRES   REMARKS
LANCASTER      CLEAR     71  38  29 SW9       29.96R                  
PALMDALE       CLEAR     69  39  33 S5        29.98R                  

CITY           SKY/WX    TMP DP  RH WIND       PRES   REMARKS
29 PALMS       PTCLDY    81  42  25 W7        29.98S                  
BARSTOW/DAGGET CLEAR     78  33  19 W9        29.92R                  
BISHOP         PTCLDY    71  20  14 S7        30.01R                  
CHINA LAKE     CLEAR     78  34  20 S10       29.90R                  
EDWARDS AFB    CLEAR     72  34  24 SW9       29.93R                  
MOJAVE         FAIR      77  27  15 W9        29.97R                  
NEEDLES        CLEAR     89  21   8 E3        29.84R                  
VICTORVILLE    CLEAR     68  34  28 SW3       30.00S                  

$$

CAZ039-040-300800-
VENTURA AND SANTA BARBARA COUNTY COAST

  
CITY           SKY/WX    TMP DP  RH WIND       PRES   REMARKS
CAMARILLO      CLOUDY    58  54  86 CALM      29.93R                  
OXNARD AIRPORT CLOUDY    58  55  90 W6        29.93R                  
*POINT MUGU    CLOUDY    60  55  83 CALM      29.94R                  
SBA APT/GOLETA PTCLDY    58  56  93 E8        29.91R                  
*SANTA BARBARA   N/A     60  54  79 W3        30.00R                  
*VENTURA         N/A     58  54  84 CALM      29.53S                  

$$

CAZ044-045-300800-
VENTURA COUNTY VALLEYS

  
CITY           SKY/WX    TMP DP  RH WIND       PRES   REMARKS
*SIMI VALLEY     N/A     61  53  73 CALM      29.87R                  
*OJAI            N/A     56  51  83 CALM      29.87R                  
*FILLMORE        N/A     57  51  80 CALM      29.84R                  

$$

CAZ053-300800-
VENTURA COUNTY MOUNTAINS

  
CITY           SKY/WX    TMP DP  RH WIND       PRES   REMARKS

$$

CAZ034-035-036-300800-
CENTRAL COAST AND SANTA YNEZ VALLEY

  
CITY           SKY/WX    TMP DP  RH WIND       PRES   REMARKS
SAN LUIS OBISP CLOUDY    53  51  93 W5        29.95S                  
SANTA MARIA    CLOUDY    54  53  97 W5        29.96S FOG              

CITY           SKY/WX    TMP DP  RH WIND       PRES   REMARKS
*CAL POLY SLO    N/A     54  54 100 W1G10       N/A                   
*LOMPOC        CLOUDY    54  48  82 W6        29.96S                  
*PISMO BEACH     N/A     55  52  90 W2        29.96S                  
*SANTA YNEZ    FAIR      52  48  87 SW3       29.94S                  

$$

CAZ037-038-051-300800-
SAN LUIS OBISPO COUNTY INTERIOR AND CUYAMA VALLEY

  
CITY           SKY/WX    TMP DP  RH WIND       PRES   REMARKS
*CUYAMA          N/A     66  37  33 CALM      29.87                   
PASO ROBLES    CLEAR     60  48  64 NW5       29.94R                  

$$

CAZ032-033-061-300800-
SOUTHERN DESERTS

  
CITY           SKY/WX    TMP DP  RH WIND       PRES   REMARKS
BLYTHE         PTCLDY    86  35  16 W10       29.82S                  
IMPERIAL       PTCLDY    76  47  35 CALM      29.78S                  
PALM SPRINGS   PTCLDY    86  48  26 N8        29.85S                  
THERMAL        PTCLDY    71  52  50 W6        29.79R                  

$$

ELSEWHERE ACROSS THE WESTERN UNITED STATES AND MEXICO

  
CITY           SKY/WX    TMP DP  RH WIND       PRES   REMARKS
DENVER, CO     MOCLDY    48  44  86 SE9       30.34S                  
GRAND CANYON,  CLEAR     59  36  42 E7        30.26S                  
HONOLULU, HI   PTCLDY    75  64  69 CALM      29.99R                  
KAHULUI, MAUI  PTCLDY    73  66  78 NE6       30.01R                  
LAKE TAHOE, CA MOCLDY    52  40  63 CALM      30.18S                  
LAS VEGAS, NV  PTCLDY    86  19   8 S10       29.86S                  
MAMMOTH LAKES, FAIR      50  30  46 CALM      30.24S                  
MEXICO CITY, M CLOUDY    59  52  77 W5        30.32F                  
PHOENIX, AZ    CLEAR     85  35  16 W5        29.84R                  
PORTLAND, OR   MOCLDY    60  52  74 NW8       29.94S                  
RENO, NV       PTCLDY    72  32  23 CALM      30.05R                  
SALT LAKE CITY MOCLDY    61  41  47 S7        30.12S                  
SAN DIEGO, CA  MOCLDY    63  55  75 W5        29.95S                  
SAN FRANCISCO, PTCLDY    54  49  83 W10       29.96F                  
SAN JOSE, CA   PTCLDY    55  50  83 CALM      29.96F                  
SEATTLE, WA    MOCLDY    57  50  77 SW8       29.94S                  
TIJUANA, MEX   PTCLDY    59  54  82 W5        29.95F                  

$$
  
STATION/POSITION TIME  TEMP    WIND        PRES    VSBY  WAVE
                       AIR SEA DIR/SP/G                  HT/PER
                 (UTC) (F)     (DEG/KT/KT) (MB)    (MI)  (FT/S)
POINT ARGUELLO B NOT AVBL
WEST SANTA BARBA 0650   54 55  320/ 19/ 23 1012.3S         5/14
POINT CONCEPTION NOT AVBL
EAST SANTA BARBA 0600   57 60  230/ 10/ 12 1013.0S
SANTA MONICA BAY 0650   59 63  230/  4/  6 1013.8R         3/15

Return to Home page


Western Regional Climate Center, wrcc@dri.edu